TimeCST,TemperatureF,Dew PointF,Humidity,Sea Level PressureIn,VisibilityMPH,Wind Direction,Wind SpeedMPH,Gust SpeedMPH,PrecipitationIn,Events,Conditions,WindDirDegrees,DateUTC
12:15 AM,3.2,1.4,92,30.00,-9999.0,Calm,Calm,-,N/A,,Unknown,0,2012-12-22 06:15:00
12:35 AM,5.0,1.4,85,30.00,10.0,SSW,3.5,-,N/A,,Clear,200,2012-12-22 06:35:00
12:55 AM,3.2,-0.4,85,29.98,-9999.0,South,6.9,-,N/A,Snow,Heavy Snow,190,2012-12-22 06:55:00
1:15 AM,1.4,-0.4,92,29.98,-9999.0,South,5.8,-,N/A,,Unknown,190,2012-12-22 07:15:00
1:35 AM,3.2,-0.4,85,29.98,-9999.0,SSW,6.9,-,N/A,,Unknown,200,2012-12-22 07:35:00
1:55 AM,3.2,-0.4,85,29.99,-9999.0,Calm,Calm,-,N/A,,Unknown,0,2012-12-22 07:55:00
2:15 AM,3.2,1.4,92,29.99,10.0,Calm,Calm,-,N/A,,Clear,0,2012-12-22 08:15:00
2:35 AM,3.2,1.4,92,29.99,10.0,Calm,Calm,-,N/A,,Clear,0,2012-12-22 08:35:00
2:55 AM,5.0,1.4,85,30.00,10.0,Calm,Calm,-,N/A,,Clear,0,2012-12-22 08:55:00
3:15 AM,5.0,1.4,85,29.99,10.0,Calm,Calm,-,N/A,,Clear,0,2012-12-22 09:15:00
3:35 AM,3.2,1.4,92,29.99,10.0,Calm,Calm,-,N/A,,Clear,0,2012-12-22 09:35:00
3:55 AM,1.4,-0.4,92,29.99,10.0,Calm,Calm,-,N/A,,Clear,0,2012-12-22 09:55:00
4:15 AM,5.0,3.2,92,29.97,10.0,Calm,Calm,-,N/A,,Clear,0,2012-12-22 10:15:00
4:35 AM,5.0,1.4,85,29.97,10.0,Calm,Calm,-,N/A,,Clear,0,2012-12-22 10:35:00
4:55 AM,5.0,3.2,92,29.97,10.0,NNW,4.6,-,N/A,,Clear,330,2012-12-22 10:55:00
5:15 AM,5.0,3.2,92,29.97,10.0,NW,4.6,-,N/A,,Clear,320,2012-12-22 11:15:00
5:35 AM,6.8,5.0,92,29.98,10.0,NNW,10.4,-,N/A,,Clear,340,2012-12-22 11:35:00
5:55 AM,8.6,6.8,92,29.98,10.0,North,11.5,-,N/A,,Clear,350,2012-12-22 11:55:00
6:15 AM,6.8,6.8,100,29.98,10.0,North,10.4,-,N/A,,Clear,350,2012-12-22 12:15:00
6:35 AM,6.8,5.0,92,30.00,10.0,North,9.2,-,N/A,,Clear,350,2012-12-22 12:35:00
6:55 AM,6.8,5.0,92,30.01,10.0,NNW,8.1,-,N/A,,Clear,340,2012-12-22 12:55:00
7:15 AM,6.8,5.0,92,30.03,10.0,NNW,9.2,-,N/A,,Clear,330,2012-12-22 13:15:00
7:35 AM,6.8,5.0,92,30.04,10.0,NNW,8.1,-,N/A,,Clear,340,2012-12-22 13:35:00
7:55 AM,6.8,6.8,100,30.04,10.0,NNW,9.2,-,N/A,,Clear,340,2012-12-22 13:55:00
8:15 AM,8.6,6.8,92,30.04,10.0,North,11.5,-,N/A,,Clear,350,2012-12-22 14:15:00
8:35 AM,8.6,6.8,92,30.05,10.0,North,11.5,-,N/A,,Clear,350,2012-12-22 14:35:00
8:55 AM,8.6,6.8,92,30.06,10.0,North,13.8,-,N/A,Snow,Light Snow,350,2012-12-22 14:55:00
9:15 AM,8.6,6.8,92,30.06,10.0,North,11.5,-,N/A,,Clear,360,2012-12-22 15:15:00
9:35 AM,8.6,8.6,100,30.07,10.0,North,10.4,-,N/A,,Clear,360,2012-12-22 15:35:00
9:55 AM,10.4,8.6,92,30.08,10.0,North,9.2,-,N/A,,Clear,360,2012-12-22 15:55:00
10:15 AM,10.4,8.6,92,30.09,10.0,North,13.8,17.3,N/A,,Clear,350,2012-12-22 16:15:00
10:35 AM,10.4,10.4,100,30.09,10.0,North,11.5,-,N/A,,Clear,360,2012-12-22 16:35:00
10:55 AM,12.2,10.4,92,30.08,10.0,North,11.5,-,N/A,Snow,Light Snow,360,2012-12-22 16:55:00
11:15 AM,14.0,10.4,86,30.09,10.0,North,11.5,-,N/A,,Scattered Clouds,10,2012-12-22 17:15:00
11:35 AM,14.0,10.4,86,30.09,7.0,North,12.7,-,N/A,Rain,Freezing Rain,10,2012-12-22 17:35:00
11:55 AM,14.0,10.4,86,30.08,9.0,North,9.2,-,N/A,Rain,Freezing Rain,360,2012-12-22 17:55:00
12:15 PM,14.0,10.4,86,30.08,8.0,North,10.4,-,N/A,Rain,Freezing Rain,350,2012-12-22 18:15:00
12:35 PM,14.0,10.4,86,30.09,10.0,North,12.7,-,N/A,,Mostly Cloudy,350,2012-12-22 18:35:00
12:55 PM,14.0,10.4,86,30.08,9.0,North,11.5,-,N/A,Rain,Freezing Rain,350,2012-12-22 18:55:00
1:15 PM,14.0,10.4,86,30.08,7.0,North,9.2,-,N/A,Snow,Light Snow,360,2012-12-22 19:15:00
1:35 PM,14.0,10.4,86,30.08,7.0,NNE,13.8,-,N/A,Snow,Light Snow,20,2012-12-22 19:35:00
1:55 PM,14.0,10.4,86,30.08,10.0,NNE,10.4,-,N/A,Rain,Freezing Rain,20,2012-12-22 19:55:00
2:15 PM,15.8,10.4,79,30.08,10.0,North,13.8,-,N/A,Rain,Freezing Rain,360,2012-12-22 20:15:00
2:35 PM,15.8,10.4,79,30.09,6.0,North,13.8,-,N/A,Rain,Freezing Rain,360,2012-12-22 20:35:00
2:55 PM,14.0,10.4,86,30.09,8.0,North,12.7,-,N/A,Snow,Light Snow,360,2012-12-22 20:55:00
3:15 PM,14.0,8.6,79,30.11,9.0,North,12.7,18.4,N/A,Snow,Light Snow,360,2012-12-22 21:15:00
3:35 PM,14.0,8.6,79,30.12,10.0,North,13.8,23.0,N/A,,Mostly Cloudy,360,2012-12-22 21:35:00
3:55 PM,12.2,6.8,79,30.12,10.0,North,12.7,-,N/A,,Mostly Cloudy,360,2012-12-22 21:55:00
4:15 PM,12.2,6.8,79,30.13,10.0,North,15.0,20.7,N/A,,Mostly Cloudy,360,2012-12-22 22:15:00
4:35 PM,10.4,6.8,85,30.13,7.0,North,12.7,-,N/A,Snow,Light Snow,350,2012-12-22 22:35:00
4:55 PM,10.4,6.8,85,30.13,10.0,North,10.4,-,N/A,,Overcast,360,2012-12-22 22:55:00
5:15 PM,10.4,6.8,85,30.14,10.0,North,10.4,-,N/A,,Mostly Cloudy,350,2012-12-22 23:15:00
5:35 PM,10.4,6.8,85,30.13,10.0,North,12.7,-,N/A,,Overcast,350,2012-12-22 23:35:00
5:55 PM,8.6,5.0,85,30.15,10.0,North,12.7,-,N/A,,Overcast,350,2012-12-22 23:55:00
6:15 PM,8.6,5.0,85,30.15,10.0,North,11.5,-,N/A,,Overcast,360,2012-12-23 00:15:00
6:35 PM,8.6,5.0,85,30.16,10.0,North,13.8,-,N/A,Snow,Light Snow,350,2012-12-23 00:35:00
6:55 PM,8.6,5.0,85,30.16,10.0,North,11.5,17.3,N/A,Rain,Freezing Rain,360,2012-12-23 00:55:00
7:15 PM,6.8,3.2,85,30.15,10.0,North,10.4,-,N/A,,Overcast,360,2012-12-23 01:15:00
7:35 PM,6.8,3.2,85,30.16,10.0,North,11.5,-,N/A,,Overcast,360,2012-12-23 01:35:00
7:55 PM,5.0,1.4,85,30.16,10.0,North,8.1,-,N/A,,Mostly Cloudy,360,2012-12-23 01:55:00
8:15 PM,5.0,1.4,85,30.15,10.0,North,8.1,-,N/A,,Mostly Cloudy,10,2012-12-23 02:15:00
8:35 PM,3.2,-0.4,85,30.16,10.0,North,6.9,-,N/A,,Mostly Cloudy,360,2012-12-23 02:35:00
8:55 PM,5.0,1.4,85,30.17,10.0,North,8.1,-,N/A,,Overcast,360,2012-12-23 02:55:00
9:15 PM,5.0,1.4,85,30.16,10.0,North,8.1,-,N/A,,Overcast,360,2012-12-23 03:15:00
9:35 PM,5.0,1.4,85,30.16,10.0,North,8.1,-,N/A,,Overcast,10,2012-12-23 03:35:00
9:55 PM,5.0,1.4,85,30.16,10.0,NNE,12.7,-,N/A,,Overcast,30,2012-12-23 03:55:00
10:15 PM,6.8,3.2,85,30.15,10.0,NNE,11.5,-,N/A,,Overcast,20,2012-12-23 04:15:00
10:35 PM,5.0,1.4,85,30.16,10.0,NNE,11.5,-,N/A,Snow,Light Snow,20,2012-12-23 04:35:00
10:55 PM,5.0,1.4,85,30.17,10.0,North,10.4,-,N/A,,Mostly Cloudy,10,2012-12-23 04:55:00
11:15 PM,3.2,-0.4,85,30.17,10.0,North,8.1,-,N/A,,Scattered Clouds,10,2012-12-23 05:15:00
11:35 PM,3.2,-0.4,85,30.17,10.0,NNE,11.5,-,N/A,Snow,Light Snow,30,2012-12-23 05:35:00
11:55 PM,5.0,1.4,85,30.17,10.0,NE,15.0,-,N/A,Snow,Light Snow,40,2012-12-23 05:55:00